Showing default

EXACTVIEW-1, 38709

Orbit data source: Space-Track

EXACTVIEW-1, 38709 is a payload satellite owned by exactEarth (CA) in SSO that was launched on Sun, 22 Jul 2012 UTC via a SOYUZ-FG launch vehicle from the Tyuratam Missile And Space Complex (TTMTR). Payload-class satellites include a variety of spacecraft equipped with specific instruments for various scientific and technological missions. These include communications satellites like Starlink; space stations such as the ISS; scientific satellites like the Hubble; Earth observation satellites from companies like Planet Labs, Umbra, and HawkEye 360; GPS; miniature CubeSats for education and research; and military/defense satellites.

Loading next visibility...
Identifier
38709, 2012-039C
Orbit
SSO
Country
Flag of CACA
Related business
Manufacturer
SSTL (Astrium)
Mission
Operational Civil Communications
Bus & Motor
SSTL-100, Unknown motor
Mass
95 kg wet, 95 kg dry
Launch date (UTC)
2012-07-22 (14 years ago)
Launch vehicle
SOYUZ-FG
Launch site
Tyuratam Missile And Space Complex (TTMTR)
Object type
Payload
Rocket body
Debris
Shape & HBR
Box + 1 Pan, 0.5 m
Radar Cross Section
0.591 m², Medium (>0.1 m² and < 1m²)

Expand to show TLE details & history
Last TLE update: 5 hours ago

TLE from 5 hours ago
0 EXACTVIEW-1
1 38709U 12039C   26265.27794718  .00000063  00000-0  46696-4 0  9992
2 38709  98.9881  24.9106 0009908 249.8570 110.1543 14.25007463736536
Epoch: 2026-09-22T06:40Z
TLE epoch observation values (Epoch: 2026-09-22T06:40:14.636Z)
Latitude
0.00001°
Longitude
-76.29611°
Altitude
813.84 km
Speed
7.445 km/s
True Right ascension
01h 39m 38s
True Declination
0° 00' 00"
Sunlit
Object was in full shadow at epoch
Visualization orbit readout
Latitude
Unknown
Longitude
Unknown
Altitude
Unknown
Speed
Unknown
Apparent Right ascension
Unknown
Apparent Declination
Unknown
Sunlit
N/A
Visualization observer readout
Local Sidereal Time
04:28:29
Azimuth
Unknown
Elevation
Unknown
Doppler factor
Unknown
Orbital elements
Apogee altitude
812.751 km
Perigee altitude
798.515 km
Semi-major axis
7,183.77 km
Eccentricity
0.00099
Inclination
98.9881°
RAAN
24.9106°
Arg. of periapsis
249.857°
True anomaly
110.26084°
Mean anomaly
110.1543°
Eccentric anomaly
110.20757°
Mean motion
3.56463 °/min
Orbital period
100.99 mins
BSTAR
0.000046696
Loading maneuver chart data...
Computing Atmospheric mass density...
Loading historical data...
Loading historical data...
Loading historical data...
Loading historical data...
Loading historical data...
Loading historical data...
Loading historical data...

Documentation

Showing up to 5 results
|